Location: Bathurst
(33.4193°S, 149.5775°E)
Time: 22:46:15
(UTC+10:00)

Vanguard 3 - Pass Details

Date: 26 June 2021
Orbit: 508 x 3261 km, 33.4° (Epoch: 25 July)

Event Time Altitude Azimuth Distance (km) Brightness Sun altitude
Rises 20:07:53 0° 262° (W) 6,814 12.8 -37.6°
Reaches altitude 10° 20:12:07 10° 262° (W) 5,987 12.2 -38.5°
Maximum altitude 20:32:15 84° 346° (NNW) 3,187 9.8 -42.7°
Enters shadow 20:34:59 73° 55° (NE) 3,199 9.7 -43.3°
